Simultaneous Nadir Overpasses (SNOs) Predictions

Prediction of SNOs between GOES-15 and NPP Satellite Orbit:

Table of predicted SNOs for the next 14.0 days since TLE Epoch: 3/24/2012
Index Date Time (GOES-15) GOES-15 Lat,Lon NPP Lat,Lon Distance(km) Time Diff (sec)
1 03/24/2012 22:33:13 -0.06,-135.11 -0.62,-137.55 279.36 80
2 03/25/2012 22:17:08 -0.06,-135.08 0.41,-133.03 233.99 80
3 03/27/2012 10:36:16 0.06,-135.01 0.80,-138.29 375.07 80
4 03/28/2012 10:20:11 0.06,-134.97 -0.23,-133.77 137.74 80
5 03/29/2012 22:39:27 -0.06,-134.95 -0.98,-139.07 469.89 80
6 03/30/2012 22:23:22 -0.06,-134.91 0.05,-134.54 42.78 80
7 04/02/2012 10:23:44 0.06,-134.79 0.19,-135.27 55.13 80
8 04/03/2012 10:07:40 0.07,-134.75 -0.85,-130.74 456.88 80
9 04/04/2012 22:26:55
